Location: Pasarilla del Rebollar
(40.6790°N, 5.0062°W)
Time: 07:33:13
(UTC+00:00)

USA 290 - Pass Details

Date: 22 April 2026
Orbit: 396 x 415 km, 73.6° (Epoch: 30 October)

Event Time Altitude Azimuth Distance (km) Brightness Sun altitude
Exits shadow 03:10:18 29° 7° (N) 770 4.0 -23.9°
Drops below altitude 10° 03:11:59 10° 15° (NNE) 1,444 5.7 -23.7°
Sets 03:14:02 0° 18° (NNE) 2,305 7.0 -23.4°
